Wetbulb
51.44 51.52 51.62 51.80 52.01 52.19 51.77 51.43 51.20 50.95 51.08 51.33 51.17 51.11 51.27 51.18 50.84 50.70 49.07 51.61 46.32 39.26 40.50 44.09 44.86 42.26 42.43 41.74 36.93 41.39 39.64 43.99 42.49 37.80 38.24 38.45 40.52 43.55 43.56 47.40 48.59 47.30 46.66 47.73 50.52 47.89 45.68 60.41 59.31 54.38 60.92 64.05 63.83 64.03
51.69 51.67 51.43 51.70 51.27 51.63 51.69 51.46 50.97 50.91 50.97 51.10 51.16 50.98 50.77 50.46 50.52 50.36 47.10 52.23 50.63 43.54 40.90 46.60 46.94 49.38 48.15 46.63 43.27 43.05 41.32 42.11 43.97 42.36 43.40 43.74 41.88 45.68 45.66 40.98 50.54 46.12 50.14 49.11 52.45 52.08 60.09 62.43 61.73 63.72 64.61 63.86 63.88 63.75
51.59 51.36 51.55 51.38 51.34 51.38 51.42 51.08 50.74 50.67 50.51 50.26 50.14 50.12 50.01 50.28 50.12 49.76 48.74 47.96 46.92 41.58 41.59 44.19 43.96 49.36 51.36 49.98 50.60 42.26 44.49 47.05 44.95 48.27 44.64 44.63 43.21 47.97 44.74 46.89 49.29 52.62 55.51 49.53 52.90 58.81 60.64 61.77 62.81 63.77 64.07 64.16 66.81 67.20
51.08 50.87 51.24 51.01 50.94 51.15 51.10 50.91 50.65 50.59 50.34 50.28 50.05 49.98 50.09 49.85 49.52 49.09 47.54 49.02 45.94 43.07 36.17 41.08 50.30 48.15 52.21 52.01 51.58 50.21 47.62 48.74 49.73 48.19 43.55 43.91 43.78 48.81 45.06 46.49 48.30 52.98 53.30 54.56 54.10 60.27 59.69 60.79 62.01 62.66 64.13 65.46 65.17 64.90
50.76 50.70 50.40 50.74 50.90 50.72 50.44 50.16 49.99 49.95 49.95 49.84 49.69 49.82 49.87 50.03 49.37 49.52 47.93 49.18 50.04 42.25 37.16 40.13 46.03 49.45 51.95 51.18 50.42 50.33 48.35 46.26 45.50 43.77 41.27 41.74 48.28 48.23 48.77 49.04 46.03 51.40 51.94 51.77 53.76 55.97 58.10 59.92 62.00 62.92 61.33 61.75 63.50 63.16
51.16 51.15 51.25 51.21 51.22 51.30 50.95 50.57 50.14 50.06 50.16 49.95 49.72 49.80 49.91 49.76 49.60 47.80 43.59 51.03 50.54 48.27 40.78 36.31 47.77 48.19 49.46 51.58 48.81 48.94 48.05 46.87 47.51 43.05 41.55 43.47 50.17 48.74 45.68 41.88 48.95 52.20 55.73 58.91 54.48 54.11 53.90 57.97 59.03 60.00 59.49 60.25 60.37 60.57
51.00 51.29 51.36 51.29 51.18 51.28 51.02 51.06 51.15 51.08 51.10 51.19 50.85 50.12 49.89 49.88 48.50 44.02 42.83 46.81 48.42 50.10 41.78 37.36 40.66 50.73 52.67 50.60 48.67 49.24 49.64 47.25 45.65 41.08 40.51 44.39 48.98 49.02 47.22 42.40 49.87 52.45 56.70 54.94 54.97 54.96 53.42 55.50 54.09 56.84 57.64 58.80 58.41 59.14
51.18 51.11 51.19 51.19 51.22 51.17 51.11 51.00 51.07 51.15 51.28 51.23 51.61 51.66 50.93 50.53 49.72 46.83 49.96 49.61 49.25 45.96 42.12 36.01 39.19 45.01 52.37 46.70 44.94 49.41 46.01 46.89 44.83 44.05 46.18 46.07 49.28 49.02 43.82 49.03 50.86 52.53 53.61 55.45 54.51 57.60 57.47 56.86 56.72 55.86 56.98 56.53 56.04 56.68
51.01 50.98 51.01 51.03 51.17 51.23 51.24 51.13 51.36 51.28 51.35 51.42 51.44 52.07 50.72 47.93 45.51 50.31 51.01 49.75 48.81 43.40 37.25 38.29 34.88 39.03 48.87 47.49 48.46 47.43 48.30 42.84 47.83 43.24 43.54 46.72 44.22 41.90 47.06 49.78 50.25 50.43 50.88 52.00 53.86 54.86 56.05 56.01 55.40 56.25 56.59 54.60 53.47 52.55
50.78 50.73 50.63 50.66 50.76 50.89 51.00 50.84 51.31 51.26 50.95 51.40 51.83 48.69 46.63 51.65 52.27 51.62 47.10 42.56 41.57 41.99 40.81 37.38 43.17 39.90 47.37 47.41 46.33 45.74 48.07 44.59 40.03 42.20 46.54 43.15 41.10 48.53 51.04 52.19 52.03 52.25 53.00 53.06 50.70 50.13 52.27 52.71 54.52 54.83 54.16 55.64 56.59 55.45
50.65 50.65 50.61 50.73 50.62 50.66 50.55 50.46 51.33 51.15 51.21 51.34 47.48 46.07 49.88 52.92 50.44 46.99 42.17 38.58 39.12 37.37 40.78 42.25 46.10 44.40 51.70 45.79 46.66 48.38 45.72 44.74 34.44 40.66 43.28 39.58 38.68 46.18 51.06 51.68 53.20 52.99 52.94 53.17 54.20 53.80 54.21 54.88 54.67 55.13 55.62 55.76 56.47 57.18
50.89 50.73 50.73 51.04 51.09 50.80 50.66 50.94 51.25 51.32 51.18 47.96 47.40 49.67 50.35 48.53 44.68 40.61 39.45 41.70 41.54 40.13 44.99 45.57 47.93 48.76 49.68 51.97 45.45 47.98 44.16 44.27 35.21 46.47 40.94 35.91 41.00 48.95 50.70 51.32 53.01 54.90 55.14 54.46 54.83 54.85 54.84 54.79 55.16 55.96 56.47 56.67 57.26 58.54
50.52 50.48 50.46 50.64 51.07 50.96 50.81 50.97 51.31 50.42 50.85 53.00 49.46 47.11 45.69 44.80 37.13 33.27 35.39 38.94 39.82 46.12 47.95 47.75 45.98 47.87 50.91 49.30 46.72 46.16 41.72 40.92 48.25 42.26 38.65 40.20 46.79 50.10 51.20 52.48 53.71 54.63 54.89 55.25 55.40 55.82 56.95 57.21 58.33 58.04 57.15 57.93 58.26 58.31
50.05 50.06 50.21 50.47 51.16 51.01 50.59 50.82 51.44 51.74 51.47 47.40 44.24 37.59 42.43 40.64 41.82 38.21 38.96 41.79 48.24 49.49 49.61 49.65 47.70 48.51 47.08 45.24 45.45 42.23 45.05 46.75 39.84 35.95 38.54 44.80 48.50 50.61 52.24 53.02 53.32 52.67 54.22 54.46 55.20 55.54 55.56 56.23 55.88 57.33 58.19 58.34 58.29 57.39
50.07 50.01 50.16 51.62 51.24 50.66 50.50 50.86 51.40 54.34 51.47 47.16 46.91 40.68 43.11 46.76 47.47 48.15 47.65 49.14 50.24 51.81 51.14 49.98 48.27 48.79 48.28 46.40 47.61 45.73 42.49 36.75 36.66 36.97 43.93 47.62 49.96 52.34 52.72 53.51 54.37 54.61 54.91 54.87 54.64 54.93 56.20 56.66 55.96 55.96 57.12 57.74 58.18 58.30
50.20 50.07 53.08 51.13 51.00 50.55 50.16 53.05 55.45 56.90 54.26 49.87 47.90 44.38 47.05 46.48 46.47 47.75 48.16 49.11 52.92 53.56 52.74 51.64 47.66 45.07 43.88 45.24 42.12 39.82 38.72 35.03 39.04 43.82 47.76 49.28 51.82 53.51 53.26 55.48 56.34 56.63 54.20 54.69 56.19 55.83 56.48 56.17 55.98 56.47 56.65 56.99 56.88 56.91
49.59 53.10 51.00 50.94 50.73 50.38 52.27 54.25 55.12 50.40 48.64 46.34 45.22 49.37 48.57 46.98 46.81 48.60 50.48 51.28 55.11 52.21 46.85 47.62 43.56 43.06 46.75 40.67 38.11 40.37 38.04 41.52 45.29 47.57 49.84 52.30 54.35 53.46 54.33 55.90 55.71 55.94 55.67 56.44 55.34 57.31 57.95 57.75 57.55 56.47 55.76 56.29 56.73 57.55
52.50 54.63 51.76 50.77 50.97 53.18 56.54 55.06 51.96 49.26 45.70 47.81 45.61 47.59 48.92 50.77 49.95 50.59 51.92 52.97 51.34 50.97 49.39 46.35 48.22 42.54 40.13 38.66 39.85 44.97 47.55 49.28 49.96 50.52 52.79 53.73 54.50 55.78 55.85 55.75 56.96 57.08 57.15 55.25 53.02 54.45 57.15 55.31 57.83 54.90 58.91 58.23 57.53 58.80
50.88 51.39 50.46 50.54 51.39 50.77 51.78 51.34 52.57 46.11 47.21 49.21 50.00 51.12 50.97 50.54 53.00 54.22 53.45 53.62 54.06 53.59 51.52 48.82 43.93 42.65 43.84 47.04 47.87 50.91 52.54 53.34 52.78 54.80 56.25 56.91 56.77 57.54 53.84 54.48 57.73 56.88 57.15 56.80 55.63 53.88 54.70 56.46 55.65 55.17 55.24 56.02 54.28 54.86
49.66 50.51 51.18 51.37 51.26 53.25 49.04 50.40 54.17 48.57 46.26 48.35 50.76 49.98 51.23 50.78 52.37 52.59 53.04 53.34 52.31 51.10 48.28 46.81 46.86 49.40 50.43 52.96 54.40 53.61 54.14 56.71 55.07 54.32 54.66 54.97 53.54 54.53 56.61 55.99 55.56 56.62 54.75 55.89 54.63 49.82 53.98 53.68 53.51 53.82 53.52 53.82 53.77 53.14
51.61 55.49 52.90 54.46 56.40 54.41 52.15 50.27 49.50 49.60 49.56 48.15 51.17 51.08 50.21 50.19 49.67 50.13 50.26 52.68 48.68 46.28 44.96 49.17 51.47 53.76 56.24 56.45 54.77 56.48 55.48 55.33 52.74 52.45 52.33 53.47 54.57 54.47 53.95 54.23 55.17 54.03 52.86 52.14 51.50 51.56 50.73 51.16 51.38 51.79 51.69 51.82 52.30 52.81
55.87 52.36 56.02 57.00 54.04 53.15 51.10 53.39 51.07 51.64 50.02 49.72 49.92 51.56 49.42 48.17 48.70 48.24 51.88 48.17 48.36 50.99 53.04 53.57 52.96 51.30 51.76 52.69 52.50 53.46 54.24 56.26 57.24 53.21 50.57 51.91 52.33 52.60 52.40 52.93 52.87 52.20 51.80 51.35 51.11 50.45 50.31 50.27 50.42 50.30 50.78 50.75 50.30 51.68
53.28 53.29 55.97 55.52 50.88 47.54 46.87 54.32 48.98 50.11 47.07 48.07 50.24 47.92 48.21 47.94 49.70 51.57 47.12 50.11 51.54 56.67 53.92 56.11 55.27 56.52 54.50 55.30 53.96 52.56 53.13 53.56 52.14 50.98 51.75 51.55 52.79 52.88 52.34 52.44 52.30 50.89 50.02 49.99 50.82 49.95 49.68 47.23 49.21 49.79 50.69 50.42 50.20 50.17
49.41 52.67 50.79 50.93 51.51 46.36 53.05 50.09 51.96 50.29 50.28 48.84 47.98 45.99 48.06 50.35 52.29 47.71 45.17 48.35 51.61 52.89 50.74 52.65 52.15 50.59 51.27 52.78 49.06 48.80 50.01 50.42 50.07 50.58 50.39 49.55 48.88 50.01 51.03 50.69 50.78 50.59 50.39 50.23 49.36 48.71 48.89 49.01 47.14 49.82 49.68 49.00 48.97 48.31
45.89 45.85 49.62 41.30 53.09 50.27 48.09 48.28 48.33 48.26 46.16 47.87 46.25 46.97 48.84 51.25 46.79 43.76 42.99 44.43 48.42 49.24 49.93 51.27 51.13 50.33 48.41 48.87 49.04 48.88 51.11 47.94 46.97 47.17 48.81 49.53 49.28 48.93 48.63 48.96 49.27 48.72 48.81 47.28 46.91 47.25 47.64 48.64 48.55 48.18 48.19 47.78 46.90 46.91
41.53 51.09 45.85 50.32 50.52 48.75 48.94 46.15 47.26 47.11 47.43 46.51 47.12 50.04 49.87 48.58 43.62 40.40 41.55 43.64 45.43 48.45 48.63 49.29 48.65 48.20 47.78 48.59 47.17 46.51 46.77 47.64 47.23 45.68 47.01 48.62 48.39 47.08 46.00 45.12 44.62 44.77 46.97 47.28 46.99 46.23 46.35 47.03 46.87 46.37 46.23 46.11 43.35 45.52
44.44 49.47 54.28 56.92 54.18 52.54 50.61 50.92 51.37 49.55 46.60 45.58 47.80 48.08 47.86 41.10 38.83 42.18 46.49 48.11 47.55 49.93 50.67 50.37 49.50 48.60 47.31 47.47 47.80 47.73 47.36 46.80 45.96 45.25 47.13 48.70 47.66 46.67 45.09 43.18 42.26 42.83 45.56 46.11 45.31 45.12 44.47 44.18 43.25 43.39 43.48 44.11 44.30 44.65
54.27 53.74 49.89 52.73 52.79 52.74 49.03 48.26 47.52 46.43 46.71 50.23 49.16 44.09 42.50 41.51 41.03 46.10 47.18 51.12 51.64 51.60 50.21 50.38 50.53 49.42 48.14 47.20 47.02 46.37 45.57 45.23 44.91 44.72 44.99 45.75 45.74 44.75 44.53 44.42 44.97 39.96 44.45 44.73 44.07 44.28 43.68 42.62 41.97 41.89 41.95 42.04 42.97 43.59
52.77 54.44 51.91 50.26 50.60 50.62 50.35 48.32 46.81 49.28 50.90 50.09 47.52 43.88 42.42 44.88 47.92 49.72 51.04 51.69 52.38 51.38 49.75 47.97 48.30 48.47 47.09 46.56 46.21 45.69 44.93 43.34 40.62 38.17 37.32 37.75 39.09 40.18 42.96 43.41 43.45 43.63 43.84 43.54 39.38 40.80 42.13 41.74 42.02 41.87 41.95 41.66 41.63 41.50
52.22 55.10 49.40 51.46 49.48 47.62 49.12 51.86 50.99 51.64 51.70 50.33 49.11 47.87 48.07 48.72 52.10 54.27 52.97 52.46 49.99 48.38 48.32 48.04 47.33 45.70 43.61 43.19 42.83 43.13 44.32 43.95 41.93 39.15 35.74 36.05 37.89 40.76 41.73 41.41 41.46 42.03 42.38 42.43 42.13 42.40 40.64 41.42 40.47 41.13 40.08 39.82 39.35 38.76
54.21 53.07 50.81 51.50 50.34 51.93 52.74 53.79 53.07 52.88 52.17 50.79 50.67 49.09 47.49 48.31 51.37 53.44 50.71 50.11 49.11 48.24 46.89 45.88 45.16 44.86 43.46 42.65 41.86 40.98 39.94 43.27 42.08 40.70 39.16 39.47 40.01 40.32 40.98 41.30 41.75 42.17 41.89 41.89 41.60 41.02 40.14 39.53 39.26 38.64 38.25 37.77 37.63 37.27
53.93 51.14 50.20 49.13 50.88 54.06 54.83 53.75 51.69 50.13 51.12 48.83 48.96 50.92 50.73 49.00 46.96 48.37 50.81 49.82 47.92 46.27 44.34 45.80 44.58 43.74 44.82 44.72 44.41 43.72 40.51 42.90 41.25 40.18 39.45 39.11 39.24 39.89 40.53 41.08 40.94 41.03 40.72 40.75 40.36 39.85 39.05 38.23 37.96 37.42 37.13 36.82 37.05 37.13
52.65 52.22 52.14 51.10 51.31 51.39 54.13 53.32 52.03 50.21 50.25 48.75 49.51 50.70 48.78 47.33 43.77 47.28 51.10 50.78 48.14 46.63 45.74 45.72 46.55 46.34 45.94 44.91 43.83 43.49 42.80 42.13 37.95 34.25 33.93 33.39 32.58 34.80 38.72 40.39 40.22 40.00 39.59 39.60 39.36 38.87 38.28 37.80 37.52 37.47 37.49 36.99 37.00 37.02
MSLP
1020.61 1019.91 1019.20 1018.45 1017.70 1016.87 1016.24 1015.84 1015.45 1015.08 1014.71 1014.29 1013.95 1013.67 1013.40 1013.24 1013.22 1013.31 1012.65 1012.60 1012.95 1012.48 1010.75 1009.97 1008.74 1007.63 1006.81 1006.41 1006.11 1006.22 1006.01 1003.81 1002.24 1003.22 1003.18 1002.08 999.84 996.76 994.86 992.25 989.76 988.88 988.32 987.84 987.65 987.58 987.16 986.21 986.92 987.61 988.03 988.15 988.19 988.34
1020.32 1019.64 1018.93 1018.24 1017.59 1016.90 1016.24 1015.65 1015.29 1014.92 1014.45 1014.01 1013.73 1013.37 1013.17 1013.10 1012.99 1012.93 1012.54 1012.01 1012.30 1011.94 1010.48 1009.47 1008.19 1006.88 1006.07 1005.67 1005.84 1005.49 1005.09 1004.88 1003.85 1003.45 1002.88 1001.60 1000.42 998.14 995.87 993.74 991.98 990.55 989.72 988.98 988.30 987.94 987.95 989.44 988.02 988.39 988.72 989.22 989.04 988.90
1020.11 1019.48 1018.81 1018.23 1017.63 1017.03 1016.39 1015.75 1015.25 1014.83 1014.40 1013.99 1013.67 1013.40 1013.17 1012.93 1012.72 1012.74 1012.51 1012.52 1012.44 1011.81 1010.00 1007.47 1005.52 1004.51 1004.32 1003.98 1004.51 1004.46 1003.41 1003.04 1003.69 1004.00 1003.62 1002.33 1000.78 999.61 997.53 995.46 993.70 991.97 991.42 990.27 989.81 989.12 988.54 988.54 989.01 989.13 989.86 989.72 989.61 989.41
1020.02 1019.40 1018.78 1018.23 1017.68 1017.06 1016.41 1015.78 1015.27 1014.79 1014.37 1013.96 1013.61 1013.28 1012.95 1012.71 1012.60 1012.56 1012.44 1012.25 1012.23 1011.40 1009.75 1005.74 1003.19 1002.82 1002.34 1001.35 1002.19 1002.68 1002.82 1002.78 1003.44 1003.80 1003.71 1002.85 1001.54 1000.66 999.95 999.02 997.98 996.64 995.31 991.97 990.77 990.63 991.05 990.62 990.33 990.49 990.08 990.56 991.26 991.44
1019.96 1019.34 1018.78 1018.23 1017.60 1016.99 1016.40 1015.88 1015.34 1014.85 1014.36 1013.88 1013.48 1013.18 1012.89 1012.59 1012.49 1012.29 1011.83 1011.24 1011.49 1011.76 1009.66 1006.45 1004.24 1001.97 1000.90 1000.52 1000.65 1001.52 1002.38 1002.80 1003.15 1003.68 1004.64 1004.00 1002.12 1001.47 1000.46 1000.46 999.50 998.55 997.20 995.52 993.95 993.69 993.30 991.69 991.34 991.34 991.48 991.47 991.87 992.33
1019.85 1019.27 1018.75 1018.22 1017.59 1016.94 1016.33 1015.79 1015.19 1014.62 1014.11 1013.64 1013.26 1012.92 1012.62 1012.43 1012.25 1011.67 1010.75 1010.52 1010.77 1011.15 1009.89 1006.78 1001.93 1000.98 1000.82 1000.08 1000.38 1000.94 1001.84 1002.67 1003.66 1005.24 1005.60 1004.65 1002.63 1002.47 1001.55 1000.59 999.79 998.79 997.99 996.68 996.14 995.48 996.35 992.20 992.46 992.08 992.88 992.88 993.23 993.46
1019.81 1019.24 1018.72 1018.20 1017.52 1016.81 1016.19 1015.58 1014.86 1014.24 1013.70 1013.15 1012.76 1012.42 1012.23 1012.17 1011.94 1011.87 1011.24 1010.55 1010.71 1010.27 1009.65 1007.22 1003.69 1000.92 1000.18 1000.06 1000.14 1000.39 1001.26 1003.09 1004.52 1005.81 1005.52 1003.76 1002.49 1002.25 1001.17 1000.81 999.91 998.77 998.05 997.88 996.47 995.75 997.76 997.07 995.09 995.07 994.68 994.68 995.15 995.77
1019.82 1019.27 1018.70 1018.04 1017.35 1016.62 1015.93 1015.26 1014.42 1013.76 1013.06 1012.47 1012.04 1011.75 1011.63 1011.61 1011.35 1010.92 1010.07 1010.18 1010.01 1009.91 1010.00 1008.28 1004.46 1001.61 999.79 999.71 999.71 1000.50 1001.69 1003.18 1004.76 1005.08 1003.96 1002.80 1002.50 1002.13 1001.57 1000.70 1000.02 998.99 998.19 997.71 998.27 998.10 998.14 997.73 996.87 997.56 997.03 997.40 997.32 997.81
1019.78 1019.26 1018.65 1017.90 1017.02 1016.26 1015.65 1014.91 1014.04 1013.12 1012.24 1011.51 1011.25 1011.10 1011.00 1010.89 1010.08 1009.60 1009.92 1010.12 1010.12 1010.64 1009.83 1008.21 1005.92 1002.76 1001.74 1001.14 1000.79 1000.21 1000.69 1001.94 1003.59 1003.65 1003.29 1002.84 1002.50 1002.24 1001.66 1000.63 1000.23 999.69 999.20 999.45 998.94 998.48 998.11 997.52 997.98 998.33 998.38 998.30 998.96 999.60
1019.48 1018.94 1018.37 1017.59 1016.65 1015.87 1015.27 1014.50 1013.53 1012.52 1011.46 1010.69 1010.19 1009.79 1009.41 1009.11 1009.42 1009.85 1010.28 1010.15 1010.19 1009.87 1009.37 1007.40 1005.04 1003.68 1002.62 1000.70 999.76 1000.22 999.82 1001.75 1002.66 1003.17 1003.14 1002.99 1003.33 1002.79 1001.97 1001.33 1001.01 1000.77 1000.40 1000.06 999.60 999.72 999.29 998.95 999.10 999.12 999.34 999.36 999.49 1000.35
1019.17 1018.53 1017.84 1017.08 1016.30 1015.47 1014.76 1013.96 1013.05 1012.15 1010.53 1009.98 1009.74 1009.28 1008.91 1008.81 1008.83 1009.05 1008.92 1009.02 1008.72 1008.25 1007.41 1005.53 1003.38 1002.17 1001.03 1000.71 1000.27 999.99 1000.52 1001.45 1002.52 1002.77 1002.88 1004.06 1004.17 1003.23 1002.43 1001.98 1001.43 1001.01 1000.43 1000.08 999.73 999.64 999.30 999.33 999.54 999.68 999.76 999.89 1000.14 1000.23
1018.80 1018.22 1017.43 1016.50 1015.94 1015.09 1014.50 1013.56 1012.69 1011.90 1010.93 1011.71 1011.44 1010.47 1009.37 1008.72 1008.84 1008.80 1007.93 1007.29 1006.86 1006.07 1004.94 1003.55 1002.09 1001.21 1000.10 1000.56 1000.98 1000.45 1000.67 1001.55 1002.27 1002.58 1003.10 1004.69 1004.76 1004.29 1003.63 1002.80 1001.98 1001.26 1000.45 1000.12 999.97 999.88 999.94 1000.04 1000.24 1000.55 1000.01 999.93 1000.08 1000.19
1018.27 1017.72 1016.98 1016.15 1015.34 1014.65 1013.94 1013.28 1012.52 1012.20 1011.34 1010.52 1010.79 1009.44 1008.65 1008.53 1008.48 1008.32 1007.59 1006.19 1005.81 1004.22 1003.10 1002.21 1001.69 1002.12 1001.41 1001.51 1001.35 1001.32 1001.45 1001.96 1002.27 1002.83 1004.56 1005.61 1005.04 1004.40 1003.76 1002.54 1001.52 1000.51 999.98 999.97 1000.05 1000.08 1000.41 1000.54 1000.70 1000.54 1000.76 1000.68 1000.85 1000.99
1017.89 1017.06 1016.41 1015.66 1015.01 1014.19 1013.39 1012.80 1012.19 1011.59 1011.24 1009.91 1009.48 1008.93 1008.46 1007.49 1006.56 1006.63 1006.96 1005.65 1003.88 1002.61 1001.16 1000.58 1001.44 1000.11 1001.54 1001.76 1001.69 1001.37 1001.87 1002.11 1003.34 1004.45 1005.22 1005.52 1005.12 1004.48 1004.00 1002.81 1002.39 1001.39 1000.67 1000.30 1000.22 1000.31 1000.44 1000.85 1001.01 1001.06 1001.23 1001.35 1001.54 1001.51
1017.55 1016.40 1015.64 1015.00 1014.48 1013.59 1012.82 1012.18 1011.78 1011.20 1010.07 1009.03 1008.66 1008.27 1007.23 1006.32 1005.08 1004.52 1004.48 1003.30 1003.17 1001.59 1000.44 1000.11 1000.80 1000.92 999.92 1000.58 1001.00 1001.40 1002.36 1004.61 1005.95 1006.23 1006.18 1005.98 1005.08 1004.55 1003.57 1002.69 1002.08 1001.81 1001.39 1001.26 1000.99 1000.84 1000.81 1001.05 1001.35 1001.61 1001.73 1001.77 1001.85 1002.05
1017.21 1015.66 1015.02 1014.36 1013.86 1013.19 1012.11 1011.19 1010.70 1009.32 1008.60 1008.54 1008.23 1007.14 1006.58 1005.69 1005.12 1004.25 1003.10 1001.90 1000.51 999.78 999.04 999.34 1000.37 1000.96 1001.55 1002.36 1003.31 1004.70 1005.50 1006.85 1007.25 1007.05 1006.74 1006.01 1005.33 1004.83 1004.27 1003.60 1002.95 1002.36 1002.25 1002.01 1001.74 1001.69 1001.58 1001.80 1002.09 1002.13 1001.99 1002.04 1002.30 1002.39
1016.90 1014.86 1014.44 1014.24 1013.66 1012.71 1011.33 1010.99 1008.87 1008.05 1007.78 1007.99 1007.65 1007.07 1006.83 1006.76 1005.89 1004.90 1003.47 1001.84 1000.77 1000.17 1000.22 1001.06 1002.05 1002.95 1003.92 1005.18 1006.13 1007.21 1007.59 1007.73 1007.68 1007.40 1006.91 1006.37 1005.86 1005.59 1005.10 1004.57 1003.82 1003.34 1003.16 1002.93 1002.82 1002.51 1002.28 1002.47 1002.49 1002.26 1002.48 1002.81 1002.64 1002.47
1015.95 1014.59 1014.67 1014.44 1013.90 1012.08 1010.46 1010.09 1008.97 1008.12 1007.92 1007.70 1007.42 1007.30 1007.12 1006.26 1005.59 1004.65 1003.94 1003.14 1001.97 1001.54 1001.83 1002.27 1003.45 1004.69 1005.79 1006.36 1006.87 1007.12 1007.16 1007.40 1007.75 1007.40 1007.00 1006.54 1006.10 1005.76 1005.68 1005.20 1003.97 1003.81 1003.77 1003.93 1003.48 1003.19 1002.97 1003.00 1003.00 1003.04 1002.82 1002.96 1002.89 1002.84
1016.04 1015.58 1015.09 1014.41 1014.40 1013.67 1010.61 1010.20 1009.96 1008.73 1008.25 1007.89 1007.42 1007.42 1007.58 1007.18 1006.23 1005.23 1004.58 1004.10 1003.53 1003.20 1003.23 1003.59 1004.94 1006.25 1007.19 1007.58 1007.49 1007.31 1007.28 1007.23 1007.15 1007.00 1006.71 1006.36 1005.84 1005.20 1005.53 1004.85 1004.52 1004.39 1004.17 1004.10 1003.94 1003.82 1003.75 1003.78 1003.29 1003.28 1003.32 1003.05 1003.11 1003.32
1015.48 1015.06 1014.64 1013.80 1013.88 1012.25 1010.74 1010.35 1009.78 1009.41 1009.07 1008.86 1008.06 1008.06 1007.77 1007.83 1007.24 1006.50 1006.39 1006.22 1005.96 1005.92 1006.15 1007.05 1007.93 1008.59 1008.50 1008.44 1008.19 1007.80 1007.47 1007.13 1006.88 1006.60 1006.61 1006.45 1006.02 1005.49 1005.03 1004.67 1004.58 1004.52 1004.51 1004.55 1004.33 1004.29 1004.14 1004.11 1004.10 1003.94 1004.10 1003.94 1003.69 1003.89
1014.49 1014.03 1013.60 1013.05 1012.24 1011.95 1011.34 1010.84 1010.19 1010.39 1010.03 1009.34 1008.58 1009.07 1009.37 1009.20 1009.02 1008.79 1008.45 1008.36 1008.19 1008.92 1009.34 1009.43 1009.39 1009.45 1009.18 1008.79 1008.46 1007.98 1007.78 1007.05 1006.81 1006.59 1006.42 1006.27 1005.77 1005.72 1005.37 1005.17 1004.93 1004.82 1004.82 1004.85 1004.78 1004.82 1004.91 1005.16 1005.46 1005.50 1005.19 1004.82 1004.67 1004.54
1014.40 1014.35 1013.48 1012.65 1012.20 1011.90 1011.93 1011.43 1011.25 1010.93 1010.30 1009.32 1009.27 1009.26 1009.89 1010.22 1010.44 1010.52 1010.52 1009.90 1010.41 1010.76 1010.54 1009.93 1009.24 1008.93 1008.95 1008.95 1008.67 1008.14 1007.59 1006.97 1006.85 1006.78 1006.62 1006.30 1006.05 1006.02 1005.56 1005.40 1005.32 1005.28 1005.52 1005.61 1005.63 1005.50 1005.76 1006.10 1006.38 1006.19 1005.61 1005.53 1005.23 1004.98
1014.67 1014.66 1013.08 1012.38 1012.19 1012.19 1011.79 1011.21 1011.00 1010.66 1010.11 1009.98 1009.87 1010.03 1010.72 1011.29 1011.66 1011.69 1011.68 1011.93 1011.85 1011.19 1010.91 1010.64 1010.19 1009.87 1009.62 1009.63 1009.72 1009.54 1008.83 1008.01 1007.30 1007.40 1007.13 1006.47 1006.13 1006.12 1005.88 1005.70 1005.63 1005.80 1006.09 1006.42 1006.49 1006.49 1006.64 1006.83 1006.64 1006.48 1006.19 1006.30 1006.08 1005.59
1015.34 1014.22 1013.15 1012.34 1011.85 1011.67 1010.73 1010.26 1010.27 1010.17 1009.84 1009.72 1009.91 1010.17 1010.41 1010.87 1011.42 1011.91 1012.71 1012.83 1012.47 1011.81 1011.58 1011.26 1010.78 1010.48 1010.29 1010.34 1010.18 1010.39 1010.27 1009.40 1008.84 1008.40 1008.56 1008.02 1007.51 1007.23 1007.10 1007.02 1007.09 1007.29 1007.59 1007.62 1007.84 1008.00 1007.86 1007.63 1007.40 1006.90 1006.66 1006.52 1006.40 1006.55
1014.90 1014.06 1012.99 1012.36 1011.47 1011.02 1010.09 1009.78 1009.68 1010.00 1009.92 1009.62 1009.71 1009.72 1010.10 1010.39 1011.51 1012.95 1014.05 1014.53 1013.21 1012.60 1012.33 1011.80 1011.32 1011.09 1011.04 1010.95 1010.77 1010.86 1011.07 1010.63 1010.15 1009.51 1009.18 1008.65 1008.32 1008.20 1008.20 1008.13 1008.24 1009.17 1009.36 1009.23 1008.94 1008.59 1008.21 1007.91 1007.59 1007.43 1007.39 1007.45 1007.74 1007.52
1013.86 1012.68 1012.36 1011.28 1010.83 1010.67 1010.31 1010.06 1009.89 1009.84 1009.71 1009.50 1009.66 1009.97 1011.02 1011.35 1012.48 1014.28 1015.31 1015.10 1014.64 1013.85 1013.47 1013.02 1012.73 1012.37 1012.08 1011.66 1011.36 1011.28 1011.38 1011.52 1011.25 1010.77 1010.19 1009.36 1009.01 1009.21 1009.60 1009.77 1009.78 1010.26 1010.62 1010.07 1009.63 1009.39 1009.13 1008.92 1008.66 1008.78 1008.74 1008.70 1008.71 1008.64
1012.61 1011.90 1011.64 1011.03 1010.66 1010.40 1010.83 1010.61 1010.19 1010.33 1010.39 1010.54 1010.70 1010.78 1011.54 1013.00 1014.37 1015.40 1015.41 1015.25 1014.82 1014.36 1014.07 1013.60 1013.21 1012.66 1012.05 1011.88 1011.89 1012.07 1012.27 1012.47 1012.48 1012.20 1011.18 1010.30 1010.53 1011.14 1011.44 1011.40 1011.49 1012.06 1011.52 1011.04 1010.98 1010.64 1010.37 1010.25 1010.22 1010.04 1009.66 1009.38 1009.20 1008.95
1011.53 1011.05 1011.07 1010.57 1010.32 1010.35 1010.84 1010.59 1010.69 1010.68 1010.69 1010.23 1010.96 1012.09 1013.04 1014.28 1015.43 1015.75 1015.69 1014.89 1014.58 1014.18 1014.07 1013.86 1013.20 1012.67 1012.74 1012.79 1012.75 1012.84 1013.22 1013.59 1013.70 1013.51 1012.56 1011.76 1012.10 1012.61 1013.03 1012.85 1012.65 1012.66 1012.22 1012.19 1012.02 1011.64 1011.62 1011.65 1011.40 1011.02 1010.71 1010.29 1009.95 1010.04
1010.58 1009.86 1009.92 1009.75 1009.97 1010.31 1010.87 1011.21 1011.64 1011.39 1011.66 1011.52 1012.08 1014.29 1015.72 1016.36 1016.35 1015.89 1015.46 1015.01 1014.56 1014.02 1013.43 1013.00 1012.91 1013.23 1013.57 1013.57 1013.69 1013.90 1014.11 1014.65 1015.04 1014.91 1014.64 1014.16 1013.99 1014.14 1014.14 1013.75 1013.39 1013.14 1012.83 1012.57 1012.43 1012.54 1012.58 1012.27 1011.91 1011.56 1011.30 1011.12 1011.15 1011.32
1009.23 1009.20 1010.30 1009.78 1010.28 1010.96 1011.71 1011.56 1011.76 1012.59 1013.21 1013.81 1014.67 1015.60 1016.20 1016.25 1015.91 1015.89 1015.26 1014.72 1013.80 1013.29 1013.46 1013.60 1013.68 1014.22 1014.56 1014.49 1014.63 1014.93 1014.94 1015.40 1016.27 1016.63 1016.61 1016.00 1015.61 1015.42 1015.09 1014.67 1014.35 1014.02 1013.69 1013.20 1012.70 1012.38 1012.55 1012.36 1012.15 1012.06 1012.13 1012.11 1012.17 1012.21
1008.82 1008.60 1008.97 1009.46 1010.27 1010.87 1011.64 1012.01 1012.25 1012.48 1012.83 1013.53 1014.17 1014.38 1015.06 1015.95 1016.19 1015.69 1014.78 1014.44 1014.15 1014.00 1014.26 1014.32 1014.54 1015.11 1015.63 1015.62 1015.75 1015.75 1016.03 1016.13 1017.09 1017.65 1018.01 1017.37 1016.89 1016.59 1016.06 1015.52 1015.16 1014.68 1014.30 1013.68 1013.18 1013.00 1013.17 1013.07 1012.98 1012.99 1012.92 1012.89 1012.86 1012.79
1008.49 1008.80 1008.77 1009.17 1009.78 1010.51 1011.19 1011.74 1012.01 1012.20 1012.21 1013.16 1013.65 1014.01 1014.65 1015.27 1015.40 1015.08 1014.49 1014.43 1014.30 1014.46 1014.87 1014.70 1014.90 1015.36 1016.09 1016.43 1016.51 1016.55 1016.89 1016.85 1017.65 1018.24 1018.30 1018.13 1017.88 1017.58 1017.07 1016.46 1016.17 1015.64 1015.11 1014.37 1014.08 1013.99 1014.06 1013.98 1013.78 1013.74 1013.45 1013.30 1013.13 1012.94
1008.32 1008.70 1008.90 1008.91 1008.99 1009.59 1010.27 1011.22 1011.93 1012.02 1012.26 1012.74 1012.91 1013.37 1013.77 1014.39 1014.75 1014.84 1014.55 1014.79 1015.02 1015.26 1015.56 1015.59 1015.34 1015.76 1016.37 1016.80 1017.10 1017.07 1016.84 1017.67 1018.20 1018.49 1018.49 1018.46 1018.36 1018.23 1017.82 1017.39 1017.13 1016.48 1015.74 1015.07 1014.77 1014.68 1014.50 1014.41 1014.17 1014.05 1013.84 1013.69 1013.49 1013.19
Wind_Speed
21 22 22 22 22 22 20 18 16 15 16 15 13 14 12 9 9 7 6 4 5 5 11 19 23 21 17 13 11 6 7 9 8 7 6 7 11 6 12 17 12 9 8 12 12 15 13 16 10 5 2 4 4 4
21 21 20 18 18 18 17 14 13 14 16 15 14 12 7 7 10 8 5 5 5 6 8 21 24 22 23 21 13 11 11 5 4 4 4 0 6 4 8 11 20 14 13 10 8 7 13 1 11 9 6 4 3 2
19 18 17 16 16 17 17 15 14 13 13 11 10 11 10 10 9 6 4 3 2 4 8 17 18 23 24 26 22 15 12 5 4 3 3 3 6 3 3 6 12 13 12 15 9 2 11 14 11 10 7 7 12 13
17 17 15 15 17 17 17 17 15 14 12 12 11 11 11 8 5 3 3 2 3 3 5 12 12 10 16 19 22 21 19 10 4 2 4 4 4 2 3 7 11 6 17 11 16 13 13 10 10 9 13 17 16 19
15 15 16 16 16 17 17 16 15 15 14 13 12 11 12 9 7 7 7 7 6 3 5 12 23 25 18 15 15 14 15 11 8 2 2 4 4 3 2 3 5 5 6 6 2 10 10 15 16 20 20 22 19 18
15 15 16 16 16 16 16 15 16 16 15 15 13 12 10 8 8 6 3 1 5 5 4 7 12 13 12 12 15 12 10 10 3 3 1 4 7 3 5 1 6 13 2 8 4 15 19 17 21 24 21 21 21 21
16 16 16 16 17 16 15 15 16 17 17 17 16 15 13 9 6 3 4 4 11 6 3 6 8 5 10 5 8 7 8 6 4 3 4 5 2 2 2 2 5 14 13 9 15 21 9 10 17 17 20 20 20 18
15 15 15 15 16 16 17 18 19 20 20 19 17 15 14 11 11 7 5 7 6 2 1 4 7 8 8 9 7 6 6 5 3 3 5 3 1 1 2 4 5 8 15 14 14 12 12 10 15 15 17 17 20 17
15 16 16 16 18 18 18 20 22 23 24 23 19 11 5 5 3 0 10 4 2 0 2 3 4 6 9 2 4 7 8 7 4 3 3 2 2 2 5 5 7 10 9 12 14 15 15 17 19 17 17 16 14 12
15 17 17 18 19 20 21 23 24 23 26 25 9 4 3 2 15 13 1 1 1 2 3 5 6 4 5 5 5 6 2 3 1 2 3 4 3 6 9 7 6 5 4 9 15 12 12 15 15 15 14 14 14 7
15 17 18 19 21 22 23 22 22 21 16 2 3 2 6 6 2 3 2 3 3 4 4 6 10 6 6 2 2 3 1 4 1 3 2 3 4 6 11 10 7 3 4 9 12 14 14 13 10 10 10 10 9 9
18 18 21 22 20 20 20 21 19 11 7 6 5 6 5 1 3 4 4 4 2 3 3 5 10 8 3 3 1 3 3 3 2 3 4 4 5 6 4 3 3 2 7 10 12 13 13 12 11 8 8 9 8 9
20 21 21 21 20 19 20 17 15 12 14 4 4 3 4 1 2 3 6 4 4 4 4 8 6 4 6 7 2 1 6 4 2 4 5 2 5 5 7 6 4 2 4 8 5 7 9 8 8 7 6 7 9 8
22 24 22 20 17 19 19 17 14 7 5 3 5 6 6 5 4 5 7 5 8 6 8 6 12 4 5 4 2 0 3 2 5 6 5 2 2 5 6 7 4 7 13 14 15 14 11 16 13 10 9 9 10 10
22 27 24 13 14 20 22 17 13 5 4 4 4 4 8 8 13 10 6 5 1 8 9 6 2 4 7 5 5 6 6 6 5 5 3 4 9 7 8 7 7 6 7 12 10 10 13 13 9 6 5 5 6 6
22 27 3 13 21 23 25 16 5 5 2 2 5 10 11 12 13 14 12 13 12 10 5 4 7 5 7 5 9 10 5 5 4 4 3 5 5 10 10 9 9 9 6 6 8 7 9 9 9 8 8 7 8 6
22 5 18 21 24 26 12 4 4 4 5 4 8 10 11 8 8 11 11 13 13 12 13 6 8 9 7 7 6 4 2 3 3 3 3 5 7 7 7 10 9 8 7 7 8 9 6 8 6 4 6 2 4 4
7 13 18 21 18 14 3 2 5 4 7 6 7 8 6 9 11 9 10 10 10 11 9 10 7 8 4 5 2 3 2 2 2 2 1 4 4 4 4 7 4 6 8 8 5 5 6 6 2 4 3 3 1 5
14 15 20 22 10 6 4 4 5 6 7 9 7 9 9 7 9 10 9 9 10 9 11 9 8 8 10 7 10 10 8 6 5 5 4 5 1 4 10 5 4 6 8 8 8 7 7 8 8 8 8 4 7 7
22 17 15 18 3 5 4 2 3 4 6 7 7 7 10 12 10 12 14 14 13 12 11 10 10 10 9 9 8 7 7 5 5 6 6 6 4 7 8 7 6 6 7 7 7 11 8 8 10 11 10 8 7 6
8 6 10 5 3 4 5 5 4 4 4 5 8 9 4 6 11 12 11 12 11 6 6 7 8 8 8 7 8 6 8 8 9 8 8 7 7 8 8 7 9 8 8 8 8 6 8 9 8 8 9 9 9 8
5 9 5 1 3 4 1 3 2 4 4 5 6 5 5 8 8 7 6 11 7 6 4 4 7 10 10 13 13 16 15 11 8 5 2 2 6 3 3 4 4 5 8 8 8 8 9 9 7 8 8 8 8 8
12 5 4 2 3 3 4 1 3 5 5 3 3 3 4 4 2 3 4 6 5 3 2 1 3 10 11 11 13 16 17 16 10 11 11 10 5 6 6 5 5 5 6 8 9 9 9 8 8 8 8 8 8 8
5 5 5 5 3 3 4 2 3 3 1 3 3 3 2 3 3 4 7 8 8 9 10 10 8 8 10 11 11 12 12 12 11 9 9 10 10 10 10 9 10 10 10 9 8 8 8 8 8 7 7 8 8 8
4 5 2 4 1 5 5 5 5 6 4 2 1 1 2 3 3 4 5 6 9 10 11 10 10 10 10 10 10 10 12 12 11 12 10 10 7 7 8 9 9 13 11 10 10 10 9 10 11 13 13 12 11 11
2 2 2 7 4 5 6 6 6 5 5 5 6 4 4 4 6 5 2 5 7 10 10 11 11 10 10 10 11 10 11 12 11 11 11 11 12 11 11 11 11 12 12 11 11 14 14 13 13 14 11 12 12 12
3 6 4 3 5 2 2 4 5 5 6 5 6 6 1 5 4 3 4 5 4 6 7 9 7 7 7 9 10 10 11 12 13 12 12 9 12 12 11 11 12 11 12 12 12 13 12 13 14 15 14 11 10 11
2 2 8 8 6 7 5 8 7 7 6 5 3 6 5 5 3 2 3 4 5 6 5 4 6 7 11 11 10 10 11 12 13 14 13 12 12 12 13 11 11 11 10 8 10 11 11 12 12 12 12 12 12 13
4 4 1 3 8 5 5 5 5 7 10 9 5 5 4 2 2 2 4 6 5 5 7 7 8 9 10 9 9 10 9 10 14 17 17 11 11 10 10 10 10 10 10 11 6 5 9 9 11 10 12 11 11 12
6 8 5 9 10 6 5 6 8 10 10 9 6 5 4 4 3 3 5 7 8 5 8 10 9 10 10 10 10 10 9 10 10 11 11 11 11 10 10 11 11 11 10 10 10 10 6 11 12 11 12 10 11 11
4 4 3 7 5 4 8 3 5 6 7 8 5 4 6 3 2 6 5 8 9 9 9 8 9 9 9 9 9 9 9 8 13 13 11 9 9 9 10 10 10 10 10 11 10 11 11 11 11 11 11 12 12 10
2 6 7 5 5 7 5 2 1 3 2 7 3 4 4 4 2 0 6 8 8 8 6 6 6 7 7 7 8 7 5 8 9 9 12 9 9 10 10 10 11 11 12 12 11 11 12 12 10 10 10 11 12 12
3 6 4 5 2 5 8 5 4 4 2 2 2 2 5 4 5 3 5 8 6 7 9 10 7 8 8 9 10 8 5 8 10 6 5 3 5 5 8 9 10 12 13 9 9 9 10 12 11 13 13 13 13 13
Wind_Direction
328 328 327 326 324 320 318 319 321 320 317 320 321 316 311 286 290 277 271 232 213 224 268 269 275 277 282 263 262 295 299 226 228 168 197 185 263 234 242 257 228 220 226 225 224 210 224 162 152 204 46 109 73 26
330 330 332 337 343 348 352 346 335 331 323 314 315 331 322 303 299 286 272 299 235 240 278 293 279 267 264 268 276 259 247 266 319 296 233 61 247 295 313 261 259 248 246 251 251 246 110 90 72 68 130 115 73 354
334 336 339 340 345 349 349 349 347 343 345 355 345 339 331 312 300 275 277 286 251 300 273 252 254 251 239 240 239 254 265 215 227 111 256 283 263 328 314 288 299 268 285 224 246 214 116 126 125 127 118 128 47 40
343 347 347 345 344 343 346 352 348 344 341 337 333 330 326 329 326 295 268 213 230 260 272 288 285 278 262 271 213 226 245 258 141 84 324 291 290 61 324 319 310 323 317 278 230 147 110 125 119 127 111 89 77 64
341 343 342 339 338 339 340 343 344 342 336 330 327 321 315 302 292 284 261 255 216 242 298 299 299 267 254 239 208 204 219 239 264 24 32 283 315 341 318 263 281 348 314 318 13 356 311 140 134 100 83 72 81 84
337 334 332 334 335 334 335 336 334 331 324 317 311 309 305 303 299 304 286 232 218 192 286 291 319 300 4 286 195 195 202 223 43 74 332 260 233 241 252 93 256 294 198 303 79 66 355 79 80 79 75 83 68 60
345 342 337 335 335 334 332 328 322 319 316 311 299 288 286 287 283 251 286 315 315 310 273 297 297 292 338 304 172 181 187 81 95 86 240 254 176 206 253 249 304 298 108 116 87 86 36 7 67 67 71 62 72 67
343 340 338 336 333 328 324 319 315 316 313 311 301 283 274 273 267 255 232 241 277 216 265 277 274 309 205 197 161 135 150 140 153 198 244 249 97 281 281 304 19 351 66 77 162 151 137 106 87 77 68 70 66 53
337 335 331 327 320 315 319 327 323 315 311 309 309 280 266 226 237 127 94 97 53 271 295 280 294 308 10 26 302 165 201 172 148 226 242 264 12 18 308 2 68 42 60 107 78 69 84 81 96 87 77 59 59 34
326 321 318 313 310 311 312 318 324 317 310 310 293 189 252 215 116 121 121 140 269 204 223 247 218 247 265 211 218 179 145 95 298 256 253 39 27 350 360 27 57 96 124 117 107 99 93 88 81 76 72 80 78 98
323 318 314 309 308 309 310 318 323 324 295 268 309 329 335 144 255 215 237 207 178 245 214 248 257 280 215 223 262 59 202 123 136 259 147 70 7 355 10 38 13 73 77 80 99 114 102 97 98 83 75 63 52 56
319 318 316 315 311 306 310 319 324 313 353 330 295 273 257 342 341 310 280 279 247 295 253 272 312 284 98 96 340 14 8 72 354 351 56 48 297 5 32 45 56 44 156 116 108 106 106 96 92 81 74 81 62 47
320 320 319 317 311 304 315 324 317 304 282 247 224 288 323 198 351 329 332 341 296 259 255 303 303 334 353 21 0 188 10 47 246 56 58 18 18 21 344 340 22 59 71 117 113 83 71 91 93 82 78 45 47 39
317 316 318 317 308 310 323 322 317 323 279 6 337 347 356 325 308 161 249 250 256 264 305 316 339 144 194 208 216 306 166 79 41 35 55 47 335 318 233 235 33 9 50 55 59 76 76 82 75 75 67 68 69 44
317 313 315 307 319 332 324 317 301 274 271 1 358 311 352 332 354 8 225 278 40 272 294 310 159 274 27 38 21 10 54 53 43 357 45 340 320 317 23 25 52 73 62 67 59 59 64 69 87 96 107 99 74 68
319 306 354 345 346 329 317 304 238 232 241 1 321 353 357 359 5 346 338 350 342 352 40 19 25 28 31 29 26 19 49 24 354 347 349 313 16 38 28 8 25 46 56 53 56 52 71 70 58 49 40 58 69 54
308 254 14 353 333 314 299 282 292 339 9 48 357 16 15 352 345 347 326 356 350 10 40 39 28 15 36 34 27 29 360 292 318 355 347 334 43 44 22 15 22 30 35 35 25 23 31 80 115 75 73 80 94 95
266 324 347 329 328 297 182 306 309 351 32 14 11 39 353 350 352 4 16 3 0 24 33 60 61 58 64 26 21 333 75 131 212 249 40 36 42 78 13 319 17 55 50 61 17 10 13 15 76 14 127 119 353 164
298 305 307 298 307 302 328 36 323 353 18 5 10 42 42 356 339 5 24 31 40 34 43 49 50 38 41 33 35 40 40 50 64 65 54 56 168 102 152 250 350 62 64 56 31 49 59 15 25 55 356 42 70 22
288 282 278 288 208 285 355 349 251 353 12 330 17 21 25 30 4 31 38 32 32 30 35 42 49 44 39 35 27 36 38 53 68 50 44 24 355 16 34 42 49 60 57 50 53 28 34 38 23 11 14 9 357 17
247 1 318 287 183 355 353 351 2 28 323 303 24 60 23 46 40 33 26 45 52 51 48 45 62 64 57 44 30 27 29 39 49 46 35 32 34 35 18 47 22 29 39 29 23 40 35 37 21 360 347 338 4 333
10 321 288 62 350 12 86 48 348 312 300 352 14 59 49 39 30 11 27 51 46 34 23 2 44 52 53 39 23 12 5 3 80 45 20 65 47 14 22 36 46 35 38 30 13 16 26 28 16 340 335 4 342 351
290 210 270 351 10 58 251 259 354 335 4 2 9 34 84 72 64 341 49 24 17 313 156 337 21 51 41 56 49 19 0 358 27 38 1 359 40 39 352 15 56 51 32 31 8 18 8 360 14 336 359 3 337 351
161 311 336 352 349 304 283 189 189 227 308 19 28 355 74 115 108 60 66 31 21 31 26 9 21 23 36 29 33 36 4 1 3 24 20 1 2 4 22 36 39 35 25 27 21 2 350 348 324 342 360 340 4 9
328 330 293 301 252 324 351 353 40 21 335 308 95 148 135 58 82 65 37 345 356 18 13 5 19 23 24 14 17 26 21 6 3 353 10 352 4 13 18 10 40 49 16 5 351 338 343 346 348 3 359 16 12 351
3 134 24 355 14 7 341 6 357 355 340 329 9 44 26 5 59 68 28 313 337 15 20 14 7 357 359 358 5 13 23 11 5 357 350 342 32 31 27 12 10 23 356 346 355 1 358 358 4 9 0 356 7 357
342 35 0 318 290 83 338 339 356 20 10 350 344 337 59 84 65 63 20 29 10 16 356 343 350 346 350 9 11 18 29 10 12 350 333 16 46 40 20 9 17 13 339 12 4 349 4 2 0 350 344 345 333 333
322 340 357 22 317 67 25 30 19 8 336 322 68 18 30 46 70 70 348 323 327 328 344 307 291 8 14 9 13 21 31 19 10 5 350 18 28 31 15 360 5 349 347 27 10 358 12 0 346 345 340 329 349 9
252 193 137 44 50 74 41 51 8 17 11 349 39 43 59 23 343 284 334 328 307 304 305 357 24 28 10 8 24 21 41 35 14 14 8 5 6 9 0 357 1 359 360 351 37 45 32 349 332 346 358 7 10 8
335 120 173 59 49 67 44 30 55 61 62 66 91 115 122 189 215 265 288 288 300 1 17 12 31 34 7 9 14 21 22 55 42 22 1 351 356 360 353 1 359 359 354 347 353 358 39 354 12 13 14 6 15 356
357 15 79 78 91 130 111 61 87 110 117 98 105 122 132 123 294 272 0 360 2 18 24 8 29 47 15 10 11 15 2 44 51 34 12 347 358 359 350 359 358 355 351 341 357 17 18 7 11 12 10 3 6 356
63 27 353 114 111 112 137 153 250 194 127 128 170 167 136 164 151 4 7 11 11 11 26 6 28 48 52 359 23 14 353 52 47 33 23 13 9 4 347 9 359 355 349 354 6 16 14 10 9 3 359 1 357 354
42 56 346 355 160 170 133 134 191 232 165 191 128 104 64 44 90 3 20 38 25 26 11 356 17 55 60 42 22 349 39 92 111 143 176 227 270 303 323 6 2 356 346 8 12 15 12 13 10 7 6 5 358 353